This demonstration page uses our WeatherBlox Daily Observations layout. Learn more.

Left ArrowRight Arrow

31.84235, -102.49876

Hourly Observations for May 20, 2015

Temp ( °F °C ) Dew Point ( °F °C ) Humidity (%) Winds ( mph kmh ) Pressure ( in mb ) Visibility ( mi km ) Precip ( " mm )
12:53 am 00:53 Hazy 71 21.7 65 18.3 81 81 S 10 17 29.80 1009 6 10 0.00 0.00
1:36 am 01:36 Mostly Cloudy with Haze 71 21.7 66 18.9 84 84 S 8 13 29.80 1009 5 8 0.00 0.00
1:53 am 01:53 Mostly Cloudy with Haze 71 21.7 66 18.9 84 84 S 8 13 29.79 1009 5 8 0.00 0.00
2:14 am 02:14 Mostly Cloudy with Mist and Fog 70 21.1 66 18.9 87 87 S 8 13 29.80 1009 5 8 0.00 0.00
2:53 am 02:53 Cloudy with Mist and Fog 70 21.1 66 18.9 87 87 S 6 9 29.79 1009 5 8 0.00 0.00
3:36 am 03:36 Partly Cloudy with Mist and Fog 70 21.1 66 18.9 87 87 S 6 9 29.77 1008 6 10 0.00 0.00
3:53 am 03:53 Clear with Mist and Fog 70 21.1 66 18.9 87 87 S 7 11 29.78 1008 6 10 0.00 0.00
4:53 am 04:53 Partly Cloudy with Mist and Fog 69 20.6 65 18.3 87 87 SSW 6 9 29.79 1009 6 10 0.00 0.00
5:02 am 05:02 Mostly Cloudy with Mist and Fog 70 21.1 66 18.9 87 87 SSW 5 7 29.80 1009 6 10 0.00 0.00
5:53 am 05:53 Cloudy 71 21.7 65 18.3 81 81 S 10 17 29.80 1009 7 11 0.00 0.00
6:53 am 06:53 Cloudy with Haze 71 21.7 65 18.3 81 81 S 5 7 29.83 1010 6 10 0.00 0.00
7:53 am 07:53 Cloudy with Haze 71 21.7 65 18.3 81 81 SE 6 9 29.86 1011 5 8 0.00 0.00
8:53 am 08:53 Cloudy with Haze 72 22.2 66 18.9 82 82 NE 7 11 29.90 1012 6 10 0.00 0.00
9:00 am 09:00 Cloudy with Haze 72 22.2 66 18.9 82 82 NE 9 15 29.88 1012 6 10 0.00 0.00
9:24 am 09:24 Cloudy with Haze 72 22.2 66 18.9 82 82 ENE 7 11 29.88 1012 5 8 0.00 0.00
9:53 am 09:53 Hazy 75 23.9 66 18.9 74 74 E 9 15 29.90 1013 6 10 0.00 0.00
10:23 am 10:23 Mostly Cloudy 75 23.9 66 18.9 74 74 E 12 19 29.88 1012 7 11 0.00 0.00
10:40 am 10:40 Partly Cloudy 76 24.4 65 18.3 69 69 ENE 7 11 29.88 1012 7 11 0.00 0.00
10:53 am 10:53 Partly Cloudy 77 25 64 17.8 64 64 ENE 7 11 29.91 1013 7 11 0.00 0.00
11:53 am 11:53 Mostly Cloudy 77 25 65 18.3 66 66 ENE 17 28 29.93 1013 8 13 0.00 0.00
12:00 pm 12:00 Mostly Cloudy 74 23.3 65 18.3 74 74 ENE 21 33 29.91 1013 8 13 0.00 0.00
12:43 pm 12:43 Mostly Cloudy 72 22.2 62 16.7 71 71 ENE 22 35 29.94 1014 9 14 0.00 0.00
12:53 pm 12:53 Cloudy 71 21.7 61 16.1 71 71 NE 24 39 29.96 1015 9 14 0.00 0.00
1:53 pm 13:53 Cloudy 67 19.4 58 14.4 73 73 NE 20 31 29.98 1015 10 16 0.00 0.00
2:53 pm 14:53 Cloudy 65 18.3 56 13.3 73 73 NE 21 33 29.98 1015 10 16 0.00 0.00
3:53 pm 15:53 Cloudy 64 17.8 55 12.8 73 73 NE 18 30 29.98 1015 10 16 0.00 0.00
4:53 pm 16:53 Cloudy 63 17.2 54 12.2 73 73 NE 16 26 29.98 1015 10 16 0.00 0.00
5:53 pm 17:53 Cloudy 63 17.2 53 11.7 70 70 NE 16 26 29.98 1015 10 16 0.00 0.00
6:53 pm 18:53 Cloudy 61 16.1 52 11.1 72 72 NE 16 26 29.98 1015 10 16 0.00 0.00
7:53 pm 19:53 Cloudy 59 15 52 11.1 78 78 NE 15 24 30.00 1016 10 16 0.00 0.00
8:53 pm 20:53 Cloudy 57 13.9 51 10.6 81 81 ENE 16 26 30.02 1017 10 16 0.00 0.00
9:05 pm 21:05 Cloudy 57 13.9 51 10.6 81 81 NE 18 30 30.06 1018 10 16 0.00 0.00
9:53 pm 21:53 Cloudy 56 13.3 51 10.6 84 84 ENE 17 28 30.04 1017 10 16 0.00 0.00
10:53 pm 22:53 Cloudy 56 13.3 51 10.6 84 84 ENE 15 24 30.06 1018 10 16 0.00 0.00
11:53 pm 23:53 Cloudy 56 13.3 50 10 81 81 ENE 17 28 30.08 1019 10 16 0.00 0.00

Powered by AerisWeather